C/2006 X1 (LINEAR)

T 2006 Mar. 6.02147 TT                                  Nakano

q   6.1270361            (2000.0)            P               Q

                   Peri.  101.31665     +0.74774832     +0.11018539

                   Node   255.23977     -0.25867575     +0.95656364

e   1.0            Incl.   42.61905     +0.61152212     +0.26989845

From 94 observations 2006 Dec. 11-2007 Jan. 12.

Residuals in seconds of arc 

2006/                     061212 595  0.2+  0.8+    061224 204  0.4-  0.1-  

061211 704  1.7+  0.4-    061212 595  0.3-  0.1+    061225 213  0.3+  0.1+  

061211 704  0.7+  0.7+    061213 704  0.1+  0.8+    061225 213  0.6+  0.2-  

061211 704  0.4-  0.9-    061213 704  0.0   0.0     061225 213  0.5+  0.3-  

061211 704  1.0+  0.1+    061213 704  0.5+  0.2+    061226 104  0.5-  0.4+  

061211 704  0.1+  0.2+    061213 704  0.3+  0.0     061226 118  0.2-  0.2-  

061211 J95  0.3-  0.5+    061213 704  0.6-  0.1+    061226 104  0.2-  0.1-  

061211 J95  0.2-  0.4+    061213 215  0.2-  0.4-    061226 118  0.2+  0.3-  

061211 J95  0.7+  0.7-    061213 215  0.6-  1.1-    061226 104  0.3-  0.1-  

061211 J95  0.4-  0.5-    061213 215  0.6-  1.7-    061227 246  0.8-  0.1+  

061212 734  0.5-  0.1+    061215 673  0.7+  0.8+    061227 246  0.3-  0.2+  

061212 734  0.3-  0.4+    061215 673  0.7+  0.3+    061227 246  0.4-  0.6+  

061212 734  0.6-  0.0     061215 673  0.6+  0.1-    061227 246  0.4-  0.1+  

061212 G96  0.7+  0.4-    061215 673  0.8+  0.6-    061227 246  0.5-  0.7-  

061212 G96  0.4+  0.4-    061215 246  0.6-  0.1-    061227 246  0.1-  0.3+  

061212 701  0.3-  0.5+    061215 246  0.8-  0.1+    061230 213  1.1+  0.3+  

061212 G96  0.6+  0.3-    061215 246  0.4-  0.4+    061230 213  1.1+  0.4+  

061212 G96  0.1-  0.1-    061215 246  0.0   0.2+    061230 213  1.1+  0.4+  

061212 701 (5.4+  5.9+)   061215 246  0.3-  0.2+    061230 213  1.0+  0.4+  

061212 G96  0.0   0.2+    061215 246  0.1+  0.1+    061231 673  0.5+  0.3+  

061212 701  0.5-  0.2+    061215 246  1.0-  0.0     061231 673  0.5+  0.4-  

061212 G96  0.1+  0.0     061221 J97  0.7+  0.5-    061231 673  0.1+  0.4-  

061212 701  0.0   0.4+    061221 J97  0.3+  0.2-    061231 673  0.4+  1.4-  

061212 G96  0.2-  0.0     061221 J97  0.9-  1.0-    061231 349  0.7-  0.0   

061212 G96  0.2+  0.2-    061221 204  0.4-  0.3-    061231 349  0.5-  0.0   

061212 143  0.6-  0.0     061222 204  0.4-  0.0     2007/                   

061212 143  0.4-  0.1+    061223 349  0.2-  1.5+    070106 J97  0.4+  0.7-  

061212 113  0.4-  0.1+    061223 349  0.3-  1.5+    070106 J97  0.3+  0.4-  

061212 B15  0.1+  0.0     061223 349  0.2-  1.7+    070106 J97  0.2-  0.4-  

061212 113  0.2-  0.1+    061223 130  0.4+  0.6-    070112 204  0.0   0.8+  

061212 B15  0.5+  0.4-    061223 130  0.4-  0.1-    070112 204  1.0-  0.0   

061212 B15  0.5+  0.2-    061223 130  1.0-  0.2-                            

061212 113  0.1-  0.3+    061223 204  0.4+  0.4-                            



NAKANO

         **** Don't distribute anyone except personal use only ****

                (C) Copyright 2007 OAA/ComputingSection

write mail from CFAD0::NAKANO on 2007-02-11 07:48:38(JST).

 



    C/2006 X1 (LINEAR)

T 2006 Mar. 9.50531 TT                                  Nakano

q   6.1364888            (2000.0)            P               Q

                   Peri.  101.66728     +0.74835557     +0.10579424

                   Node   255.22957     -0.25295080     +0.95811376

e   1.0            Incl.   42.62398     +0.61317195     +0.26613078

From 89 observations 2006 Dec. 11-Dec. 31.





NAKANO

         **** Don't distribute anyone except personal use only ****

                (C) Copyright 2007 OAA/ComputingSection

write mail from CFAD0::NAKANO on 2007-01-11 23:59:04(JST).

 

◎C/2006 X1の軌道と予報位置です



 上尾の門田健一氏から12月23日の観測が報告されました.氏のCCD全光度は,

18.2等でした.



    C/2006 X1 (LINEAR)

T 2006 Feb. 15.64730 TT                                 Nakano

q   6.0741257            (2000.0)            P               Q

                   Peri.   99.39974     +0.74428677     +0.13319062

                   Node   255.34724     -0.28912532     +0.94758622

e   1.0            Incl.   42.56644     +0.60203302     +0.29041457

From 52 observations 2006 Dec. 11-23.

 

Date/        TT  R.A.(2000) Decl.     Delta   r     Daily motion  Mag.  Moon Age

              h    h  m       。  ,                      ,  / PA 。  m1      。

2006 Dec. 20 12  00 13.37  +40 12.8   6.057  6.439     7.5 / 142  17.5  112  .00

          21 12  00 13.78  +40 06.9   6.071  6.442     7.5 / 141  17.5  101  .01

          22 12  00 14.19  +40 01.1   6.086  6.444     7.6 / 139  17.5   90  .04

          23 12  00 14.62  +39 55.4   6.100  6.446     7.6 / 138  17.5   78  .10

          24 12  00 15.06  +39 49.7   6.115  6.448     7.6 / 137  17.5   67  .18

          25 12  00 15.51  +39 44.1   6.129  6.451     7.7 / 136  17.5   56  .27

          26 12  00 15.96  +39 38.6   6.144  6.453     7.7 / 135  17.5   45  .37

          27 12  00 16.43  +39 33.1   6.159  6.455     7.7 / 134  17.5   37  .49

          28 12  00 16.91  +39 27.7   6.174  6.458     7.8 / 133  17.5   32  .60

          29 12  00 17.40  +39 22.4   6.189  6.460     7.8 / 132  17.5   32  .71

          30 12  00 17.90  +39 17.2   6.204  6.462     7.8 / 131  17.5   37  .80

          31 12  00 18.40  +39 12.0   6.219  6.465     7.9 / 130  17.5   46  .89

2007 Jan.  1 12  00 18.92  +39 06.9   6.234  6.467     7.9 / 129  17.6   56  .95

           2 12  00 19.45  +39 01.9   6.250  6.470     8.0 / 128  17.6   67  .98

           3 12  00 19.98  +38 57.0   6.265  6.472     8.0 / 127  17.6   79 1.00

           4 12  00 20.53  +38 52.2   6.281  6.474     8.0 / 126  17.6   90  .99

           5 12  00 21.08  +38 47.4   6.296  6.477     8.1 / 125  17.6  101  .96

           6 12  00 21.64  +38 42.7   6.312  6.479     8.1 / 124  17.6  112  .91

           7 12  00 22.22  +38 38.1   6.327  6.481     8.2 / 124  17.6  122  .85

           8 12  00 22.80  +38 33.6   6.343  6.484     8.2 / 123  17.6  132  .77

           9 12  00 23.38  +38 29.2   6.359  6.486     8.3 / 122  17.6  140  .69

          10 12  00 23.98  +38 24.8   6.375  6.489     8.3 / 121  17.6  147  .60

          11 12  00 24.59  +38 20.5   6.391  6.491     8.3 / 120  17.6  150  .50

          12 12  00 25.20  +38 16.3   6.406  6.493     8.4 / 119  17.6  150  .41

          13 12  00 25.82  +38 12.2   6.422  6.496     8.4 / 118  17.6  146  .32

          14 12  00 26.45  +38 08.2   6.438  6.498     8.5 / 118  17.6  138  .23

          15 12  00 27.09  +38 04.3   6.454  6.501     8.5 / 117  17.6  129  .15

          16 12  00 27.73  +38 00.4   6.470  6.503     8.6 / 116  17.7  119  .09

          17 12  00 28.39  +37 56.7   6.486  6.506     8.6 / 115  17.7  107  .04

          18 12  00 29.05  +37 53.0   6.502  6.508     8.7 / 114  17.7   96  .01

          19 12  00 29.72  +37 49.4   6.518  6.511     8.7 / 114  17.7   83  .00

          20 12  00 30.39  +37 45.9   6.534  6.513     8.8 / 113  17.7   71  .02

          21 12  00 31.07  +37 42.4   6.551  6.516     8.8 / 112  17.7   59  .07

          22 12  00 31.76  +37 39.1   6.567  6.518     8.9 / 111  17.7   47  .14

          23 12  00 32.46  +37 35.8   6.583  6.521     8.9 / 111  17.7   37  .23

          24 12  00 33.16  +37 32.7   6.599  6.523     9.0 / 110  17.7   30  .34

          25 12  00 33.87  +37 29.6   6.615  6.526     9.0 / 109  17.7   28  .45

          26 12  00 34.59  +37 26.6   6.631  6.528     9.1 / 109  17.7   32  .56

          27 12  00 35.31  +37 23.6   6.647  6.531     9.1 / 108  17.7   40  .67

          28 12  00 36.04  +37 20.8   6.663  6.533     9.2 / 107  17.7   50  .77

          29 12  00 36.78  +37 18.0   6.679  6.536     9.2 / 107  17.7   61  .85

          30 12  00 37.52  +37 15.4   6.695  6.538     9.3 / 106  17.7   73  .92

          31 12  00 38.26  +37 12.8   6.711  6.541     9.3 / 106  17.8   84  .97

NAKANO

         **** Don't distribute anyone except personal use only ****

                (C) Copyright 2006 OAA/ComputingSection

write mail from CFAD0::NAKANO on 2006-12-25 01:38:29(JST).

 



戻ります。